Погода в Корце

Украина / Ровненская область     50°37′01″N   27°09′38″E
темп.,
°C
ветер,
м/с
пор.,
м/с
влажн.,
%
обл.,
%
осадки,
мм/ч
давл.,
гПа
погр.,
м
21 апреля, ср
ср2100:00+4ссз339275 0.0 101249
03:00+4сз339316 0.0 101249
06:00+5з3691100 0.0 1012147
09:00+7сз3579100 0.0 1013558
12:00+9з3572100 0.1 1013995
15:00+13з5657100 0.6 10121411
18:00+12зюз366565 0.9 1011749
21:00+8юз46797 1.5 101382
22 апреля, чт
чт2200:00+7юз4108684 0.2 1013175
03:00+7зюз399196 0.3 1014203
06:00+6юз411935 0.1 1014234
09:00+10юз697776 0.1 1014435
12:00+14юз686279 0.7 10141516
15:00+14зюз7106898 1.9 10131507
18:00+9зюз5884100 2.8 1014541
21:00+8з3592100 3.3 1015155
23 апреля, пт
пт2300:00+5сз4892100 3.8 1016676
03:00+4з3794100 3.9 1016288
06:00+3з3892100 0.0 1017273
09:00+4зсз5876100 0.0 1018635
12:00+8з685393 0.0 10171826
15:00+8зсз895565 0.3 10171530
18:00+7з675897 0.2 10171320
21:00+4з337151 0.3 101749
24 апреля, сб
сб2400:00+2зюз4881100 0.0 1017168
03:00+3з6108998 0.8 1016844
06:00+1зсз81496100 0.3 1017832
09:00+2зсз8117572 0.4 10191136
12:00+4зсз7106099 0.3 10191720
15:00+6зсз8115499 1.3 10191934
18:00+7зсз7105487 0.4 10181771
21:00+3з41072100 0.6 1020324
25 апреля, вс
вс2500:00+1з411785 0.0 1020269
03:00−1з38865 0.0 1020139
06:000з5118595 0.0 1020404
09:00+2зсз610716 0.3 10201045
12:00+5зсз81056100 0.3 10201953
15:00+6зсз71050100 0.4 10202285
18:00+6сз610536 0.1 10191824
21:00+2з4107688 0.3 1020272